Current Weather Conditions: station 46100

sailwx.info

Wind from 120 at 15 knots

Air temperature 9.5° C
Water temperature 9.4° C

Last reported at 2020-Jan-25 09:50 UTC.
Time now 2020-Jan-25 13:27 UTC

Location: N 46°54' W 125°00'.
View on Google Maps.

See reports from other nearby stations

  
Tides and Currents Weather Stations Pressure Air Temp Water Temp Dewpoint Dewpoint Depression Visibility Wind Speed Wind Dir Waves Ship Positions
date/time (UTC)wind fromknots sea level pressurealtimeterstation pressurevisibilityair tempwater tempwave heightnotes
2020-Jan-25 09:50 120 15 9.5 9.4
2020-Jan-25 07:50 160 13 9.7 9.4
2020-Jan-25 05:50 150 11 9.7 9.4
2020-Jan-25 03:50 170 13 9.8 9.4
2020-Jan-25 01:50 190 9 9.7 9.4
2020-Jan-24 23:50 180 9 9.2 9.4
2020-Jan-24 21:50 200 11 9.7 9.4
2020-Jan-24 19:50 220 11 10.0 9.4
2020-Jan-24 17:50 210 13 10.0 9.4
2020-Jan-24 15:50 210 15 9.7 9.4
2020-Jan-24 13:50 200 13 9.9 9.4
2020-Jan-24 11:50 190 13 9.8 9.4
2020-Jan-24 09:50 200 13 9.8 9.4
2020-Jan-24 07:50 180 9 9.5 9.4
2020-Jan-24 05:50 190 11 9.6 9.4
2020-Jan-24 03:50 190 13 10.0 9.5
2020-Jan-24 01:50 190 17 10.1 9.6
2020-Jan-23 23:50 180 19 10.2 9.6
2020-Jan-23 21:50 180 15 10.1 9.6
2020-Jan-23 19:50 200 17 10.1 9.5
2020-Jan-23 17:50 190 17 10.1 9.5
2020-Jan-23 15:50 190 19 10.3 9.5
2020-Jan-23 13:50 190 17 10.3 9.5